[[{"header":{"parameterUnit":"m.s-1","parameterCategory":1,"la1":30.2991,"la2":30.254,"lo1":-89.0895,"lo2":-89.0444,"dy":0.0017,"dx":0.0017,"nx":28,"ny":28,"refTime":"2024-03-25T09:00:00:Z","depth":0,"parameterNumber":2,"parameterNumberName":"U-component_of_WINDS"},"data":[0,0,0,0,0,0,0,0,0,0,0,0,0,0,0,0,0,0,0,0,0,0,0,0,0,0,0,0,0,0,0,0,0,0,0,0,0,0,0,0,0,0,0,0,0,0,0,0,0,0,0,0,0,0,0,0,0,0,-4.102,-4.1021,0,-4.107,-4.107,-4.1071,-4.1029,-4.1028,-4.1026,-4.1024,-4.1076,-4.1079,-4.1082,0,0,0,0,0,0,0,0,0,0,0,0,0,-4.0891,-4.0894,-4.102,-4.1021,-4.1021,-4.107,-4.107,-4.1071,-4.103,-4.1028,-4.1026,-4.1024,-4.1075,-4.1079,-4.1082,0,0,0,0,0,0,0,0,0,0,0,0,0,-4.0945,-4.0895,-4.102,-4.1007,-4.1006,-4.107,-4.107,-4.1071,-4.103,-4.1028,-4.1025,-4.1023,-4.1074,-4.1078,-4.1083,-4.1163,0,0,-4.1097,-4.1099,0,0,0,0,0,0,0,0,-4.0942,-4.0949,-4.1008,-4.1008,-4.1007,-4.1041,-4.1044,-4.1102,-4.1031,-4.1021,-4.1024,-4.1021,-4.1067,-4.1072,-4.1087,-4.1165,-4.1167,-4.1097,-4.11,-4.1102,-4.1103,0,0,0,0,0,0,0,-4.0938,-4.0947,-4.104,-4.1009,-4.1008,-4.0999,-4.1003,-4.1055,-4.1058,-4.1022,-4.1019,-4.1025,-4.1066,-4.1082,-4.1087,-4.1168,-4.1097,-4.1101,-4.1104,-4.1105,-4.1314,-4.1317,0,0,0,0,0,0,-4.0936,-4.0944,-4.1038,-4.1041,-4.0967,-4.1003,-4.1008,-4.1033,-4.1057,-4.1058,-4.1027,-4.1023,-4.1076,-4.1082,-4.1089,-4.1183,-4.1102,-4.1106,-4.1108,-4.1311,-4.1315,-4.1318,0,0,0,0,0,0,-4.0933,-4.0944,-4.1036,-4.0992,-4.1003,-4.1008,-4.1036,-4.1035,-4.1051,-4.1061,-4.1062,-4.1043,-4.1074,-4.1083,-4.1145,-4.1184,-4.1108,-4.1112,-4.1308,-4.1313,-4.1316,-4.1373,0,0,0,0,0,0,-4.0929,-4.0944,-4.0973,-4.0993,-4.1005,-4.109,-4.1038,-4.1038,-4.1059,-4.1054,-4.1077,-4.1078,-4.1073,-4.1138,-4.1149,-4.1189,-4.1115,-4.1304,-4.131,-4.1315,-4.1367,-4.1378,-4.1388,0,0,0,0,0,-4.0925,-4.0988,-4.0975,-4.0987,-4.1043,-4.1093,-4.11,-4.1092,-4.1062,-4.1093,-4.1099,-4.1077,-4.1179,-4.1145,-4.1157,-4.1199,-4.1302,-4.1308,-4.1315,-4.1363,-4.1376,-4.1388,0,0,0,0,0,0,-4.0973,-4.099,-4.0976,-4.1047,-4.1069,-4.1086,-4.1123,-4.1107,-4.1138,-4.1132,-4.1122,-4.1127,-4.1192,-4.1202,-4.1164,-4.1277,-4.1236,-4.1245,-4.1268,-4.1281,-4.1291,-4.1286,-4.1119,0,0,0,0,0,-4.0992,-4.1031,-4.1044,-4.1105,-4.1117,-4.1118,-4.114,-4.1132,-4.1154,-4.1163,-4.1174,-4.1197,-4.1234,-4.1258,-4.1293,-4.1369,-4.1373,-4.1404,-4.1415,-4.1423,-4.143,-4.1471,-4.1485,-4.1339,-4.1339,-4.1339,0,0,-4.1031,-4.1045,-4.107,-4.1115,-4.1131,-4.1171,-4.1126,-4.1171,-4.1201,-4.117,-4.1228,-4.1238,-4.1262,-4.1332,-4.1363,-4.1342,-4.1472,-4.1431,-4.1438,-4.1441,-4.1479,-4.1493,-4.1505,-4.1343,-4.1343,-4.1342,0,0,-4.1123,-4.1138,-4.119,-4.1207,-4.1232,-4.1232,-4.1245,-4.1265,-4.127,-4.1328,-4.1306,-4.1342,-4.1406,-4.1424,-4.1442,-4.1542,-4.1522,-4.1554,-4.1607,-4.1646,-4.1657,-4.1667,-4.1702,-4.1714,-4.1561,-4.1562,-4.1562,0,-4.1169,-4.1228,-4.1219,-4.1265,-4.1286,-4.126,-4.1313,-4.133,-4.1365,-4.1379,-4.1356,-4.1436,-4.1451,-4.1523,-4.1548,-4.1563,-4.1577,-4.155,-4.1657,-4.1667,-4.1676,-4.1708,-4.1721,-4.1565,-4.1565,-4.1564,-4.1564,0,-4.1282,-4.1324,-4.1364,-4.1397,-4.1422,-4.1471,-4.147,-4.1497,-4.1488,-4.1492,-4.1552,-4.1569,-4.1606,-4.1623,-4.1615,-4.1695,-4.1681,-4.1658,-4.1615,-4.1693,-4.1724,-4.1736,-4.157,-4.1569,-4.1568,-4.1567,0,0,-4.1404,-4.1433,-4.1447,-4.1462,-4.1487,-4.1519,-4.1568,-4.1604,-4.1627,-4.1653,-4.1692,-4.1748,-4.1726,-4.1746,-4.174,-4.1775,-4.1852,-4.1747,-4.1747,-4.1764,-4.194,-4.1956,-4.197,-4.184,-4.1842,-4.1844,-4.1937,0,-4.1495,-4.1579,-4.1573,-4.1652,-4.169,-4.1667,-4.1709,-4.1729,-4.1735,-4.1768,-4.1774,-4.1813,-4.1782,-4.1794,-4.1828,-4.1835,-4.1886,-4.1829,-4.1876,-4.1878,-4.1868,-4.1986,-4.2004,-4.209,-4.1949,-4.1951,-4.1952,0,-4.1613,-4.1641,-4.1724,-4.1743,-4.1759,-4.1797,-4.1829,-4.1862,-4.1885,-4.1887,-4.191,-4.1898,-4.1947,-4.1905,-4.1973,-4.1934,-4.1954,-4.196,-4.1964,-4.1966,-4.1918,-4.199,-4.2118,-4.213,-4.1971,-4.197,-4.1968,0,-4.1691,-4.1751,-4.1807,-4.1821,-4.1846,-4.1873,-4.1885,-4.1905,-4.1927,-4.1956,-4.197,-4.2006,-4.2024,-4.2052,-4.205,-4.202,-4.2118,-4.2076,-4.212,-4.212,-4.214,-4.2138,-4.227,-4.2156,-4.2156,-4.2156,-4.2156,0,-4.1793,-4.1844,-4.1843,-4.1877,-4.1934,-4.1927,-4.1984,-4.1992,-4.2011,-4.2047,-4.2031,-4.2065,-4.2061,-4.2096,-4.2096,-4.2151,-4.216,-4.2163,-4.2161,-4.2163,-4.2162,-4.2174,-4.2167,-4.2159,-4.2159,-4.2158,-4.2157,0,-4.1889,-4.189,-4.195,-4.1969,-4.1975,-4.2016,-4.2032,-4.2065,-4.2069,-4.2115,-4.2126,-4.2132,-4.2173,-4.2174,-4.2221,-4.222,-4.2287,-4.2281,-4.2279,-4.2277,-4.232,-4.2315,-4.2463,-4.2481,-4.2357,-4.2358,-4.2359,0,-4.1952,-4.1991,-4.2014,-4.2036,-4.2049,-4.2087,-4.2109,-4.2105,-4.2129,-4.2158,-4.2188,-4.2226,-4.2257,-4.2322,-4.2332,-4.2367,-4.236,-4.2409,-4.2365,-4.2365,-4.2359,-4.2356,-4.2359,-4.2417,-4.2418,-4.242,-4.242,0,-4.2065,-4.2064,-4.2096,-4.2129,-4.2156,-4.2182,-4.2206,-4.2226,-4.2225,-4.2253,-4.2293,-4.2317,-4.2364,-4.2403,-4.2437,-4.245,-4.2435,-4.2435,-4.2446,-4.2447,-4.2444,-4.2445,-4.23,-4.2431,-4.243,-4.2429,-4.2428,-4.2428,-4.2146,-4.2178,-4.2199,-4.2236,-4.2253,-4.2276,-4.2308,-4.2316,-4.235,-4.2387,-4.2383,-4.2428,-4.2451,-4.2496,-4.2512,-4.2547,-4.253,-4.2547,-4.2551,-4.2555,-4.2559,-4.244,-4.2554,-4.2553,-4.2553,-4.2553,-4.2553,0,-4.2256,-4.2268,-4.2302,-4.2336,-4.2365,-4.2348,-4.2374,-4.24,-4.2439,-4.2461,-4.2492,-4.2538,-4.2576,-4.2588,-4.2625,-4.2651,-4.2645,-4.266,-4.2657,-4.266,-4.2573,-4.2558,-4.2664,-4.2664,-4.2664,-4.2664,-4.2664,-4.2664,-4.2316,-4.237,-4.2372,-4.2435,-4.2447,-4.249,-4.2506,-4.2527,-4.2545,-4.2597,-4.2628,-4.2636,-4.2655,-4.2692,-4.2726,-4.2729,-4.2742,-4.276,-4.276,-4.2678,-4.2666,-4.2656,-4.2642,-4.2764,-4.2764,-4.2844,-4.2845,-4.2846]},{"header":{"parameterUnit":"m.s-1","parameterCategory":1,"la1":30.2991,"la2":30.254,"lo1":-89.0895,"lo2":-89.0444,"dy":0.0017,"dx":0.0017,"nx":28,"ny":28,"refTime":"2024-03-25T09:00:00:Z","depth":0,"parameterNumber":3,"parameterNumberName":"V-component_of_WINDS"},"data":[0,0,0,0,0,0,0,0,0,0,0,0,0,0,0,0,0,0,0,0,0,0,0,0,0,0,0,0,0,0,0,0,0,0,0,0,0,0,0,0,0,0,0,0,0,0,0,0,0,0,0,0,0,0,0,0,0,0,4.1074,4.1074,0,4.1075,4.1075,4.1075,4.1024,4.1022,4.1021,4.1019,4.102,4.1021,4.1022,0,0,0,0,0,0,0,0,0,0,0,0,0,4.1028,4.1029,4.1074,4.1074,4.1074,4.1075,4.1075,4.1075,4.1024,4.1022,4.102,4.1019,4.1019,4.1021,4.1022,0,0,0,0,0,0,0,0,0,0,0,0,0,4.1041,4.103,4.1074,4.1049,4.1046,4.1075,4.1075,4.1075,4.1024,4.1022,4.102,4.1018,4.1019,4.1021,4.1023,4.1075,0,0,4.1029,4.1029,0,0,0,0,0,0,0,0,4.104,4.1042,4.1052,4.105,4.1048,4.1047,4.1059,4.1075,4.1025,4.1033,4.1019,4.1017,4.1031,4.1031,4.1036,4.1075,4.1075,4.1029,4.103,4.1031,4.1031,0,0,0,0,0,0,0,4.1039,4.1042,4.1074,4.1053,4.105,4.1037,4.1037,4.1062,4.1043,4.1032,4.1028,4.1029,4.1029,4.1034,4.1036,4.1075,4.1029,4.103,4.1032,4.1032,4.1159,4.1161,0,0,0,0,0,0,4.1042,4.1042,4.1074,4.1074,4.1039,4.104,4.1039,4.1049,4.1043,4.104,4.1031,4.1026,4.1032,4.1033,4.1035,4.1097,4.1031,4.1032,4.1034,4.1157,4.1159,4.1162,0,0,0,0,0,0,4.1041,4.1045,4.1074,4.1057,4.106,4.1043,4.1055,4.105,4.1056,4.1042,4.1038,4.1039,4.103,4.1033,4.1066,4.1096,4.1033,4.1035,4.1154,4.1158,4.1161,4.122,0,0,0,0,0,0,4.104,4.1045,4.1065,4.1058,4.1061,4.1105,4.1056,4.1052,4.1059,4.1054,4.1049,4.1046,4.1029,4.1063,4.1068,4.1098,4.1037,4.1151,4.1156,4.116,4.1215,4.1225,4.1233,0,0,0,0,0,4.1038,4.1081,4.1066,4.107,4.1085,4.1107,4.1108,4.1088,4.1062,4.1082,4.1073,4.1046,4.1092,4.1067,4.1072,4.1103,4.1149,4.1154,4.1159,4.1211,4.1223,4.1233,0,0,0,0,0,0,4.1092,4.108,4.1063,4.1105,4.1107,4.1098,4.1122,4.1101,4.1111,4.1105,4.1079,4.1078,4.1116,4.1113,4.1085,4.1154,4.1116,4.1122,4.1154,4.1165,4.1174,4.1174,4.1038,0,0,0,0,0,4.1109,4.1127,4.1116,4.1154,4.1156,4.1139,4.1148,4.1132,4.1133,4.1134,4.1127,4.113,4.1145,4.1155,4.1168,4.1215,4.1213,4.1239,4.1248,4.1255,4.1261,4.1286,4.1297,4.1178,4.1178,4.1178,0,0,4.1143,4.1139,4.1152,4.1165,4.1164,4.1185,4.114,4.1163,4.1178,4.1137,4.1168,4.1164,4.1165,4.1206,4.1223,4.1204,4.1293,4.1262,4.1268,4.1269,4.1292,4.1303,4.1313,4.1182,4.1181,4.118,0,0,4.1216,4.1215,4.1247,4.1248,4.1249,4.1238,4.1245,4.124,4.1235,4.1266,4.1237,4.1254,4.128,4.1282,4.1287,4.1362,4.1339,4.1367,4.1414,4.1439,4.1448,4.1457,4.1484,4.1494,4.1373,4.1373,4.1373,0,4.1258,4.1287,4.1266,4.1291,4.1297,4.1263,4.1295,4.1297,4.1302,4.1307,4.1286,4.1319,4.1317,4.1358,4.1377,4.1381,4.139,4.1367,4.1449,4.1457,4.1464,4.149,4.15,4.1377,4.1376,4.1376,4.1376,0,4.134,4.1361,4.1386,4.1393,4.1402,4.1431,4.1414,4.1426,4.141,4.1401,4.1433,4.143,4.1442,4.1451,4.1435,4.149,4.1478,4.1453,4.1415,4.1479,4.1503,4.1512,4.1382,4.138,4.1379,4.1378,0,0,4.1445,4.144,4.145,4.1453,4.1452,4.1468,4.1495,4.1507,4.1519,4.1524,4.1546,4.157,4.1547,4.1552,4.1537,4.1559,4.1619,4.1531,4.1531,4.1547,4.168,4.1698,4.171,4.1604,4.1606,4.1607,4.168,0,4.1516,4.1562,4.1544,4.1592,4.1611,4.1579,4.1603,4.1606,4.1599,4.1614,4.1606,4.1623,4.1592,4.1595,4.1615,4.1607,4.1645,4.1602,4.1624,4.1625,4.1624,4.1722,4.1741,4.181,4.1689,4.169,4.1691,0,4.1604,4.1614,4.1664,4.1661,4.1668,4.169,4.17,4.1715,4.1717,4.1711,4.1718,4.1697,4.1724,4.1687,4.1724,4.1695,4.1703,4.1701,4.1703,4.1703,4.1662,4.1725,4.1831,4.1842,4.1706,4.1704,4.1703,0,4.1676,4.1702,4.1735,4.1738,4.1735,4.1752,4.1751,4.1751,4.176,4.1769,4.1775,4.1787,4.1794,4.1803,4.1787,4.1761,4.1826,4.1788,4.1822,4.1822,4.1836,4.1835,4.1945,4.1842,4.1842,4.1842,4.1842,0,4.1757,4.1789,4.1767,4.1788,4.1823,4.1802,4.1837,4.1833,4.1834,4.1853,4.1827,4.1845,4.1823,4.1839,4.1827,4.1859,4.1863,4.1858,4.1854,4.186,4.1861,4.1865,4.1859,4.1845,4.1844,4.1844,4.1843,0,4.1843,4.1829,4.1864,4.1859,4.1858,4.1884,4.188,4.1899,4.189,4.1915,4.192,4.1907,4.1925,4.191,4.1928,4.1919,4.1962,4.1952,4.1962,4.1959,4.1994,4.1991,4.2109,4.2124,4.2012,4.2013,4.2014,0,4.1895,4.1919,4.1917,4.1928,4.1929,4.1948,4.1957,4.1938,4.1948,4.1953,4.1972,4.1988,4.2,4.2031,4.2022,4.2036,4.2026,4.2066,4.2027,4.2033,4.2026,4.2025,4.2027,4.2074,4.2075,4.2076,4.2077,0,4.1989,4.1981,4.1996,4.2009,4.2021,4.2029,4.2036,4.2047,4.2027,4.2041,4.2059,4.2069,4.2087,4.2104,4.2115,4.2114,4.2093,4.209,4.2098,4.2104,4.2109,4.2107,4.1983,4.2087,4.2086,4.2085,4.2085,4.2084,4.2059,4.2079,4.2081,4.2098,4.2102,4.2109,4.2127,4.2121,4.2136,4.215,4.2138,4.2161,4.2163,4.2176,4.2178,4.2195,4.2179,4.2191,4.2194,4.2197,4.2202,4.2107,4.2197,4.2197,4.2197,4.2197,4.2196,0,4.2152,4.2152,4.2168,4.2179,4.2193,4.2172,4.2179,4.2191,4.2212,4.2216,4.2229,4.225,4.2267,4.226,4.2275,4.229,4.228,4.2294,4.2293,4.2293,4.2217,4.2208,4.2302,4.2302,4.2302,4.2302,4.2302,4.2302,4.2202,4.2235,4.2228,4.2263,4.2262,4.2285,4.229,4.2297,4.23,4.2326,4.234,4.2336,4.2336,4.235,4.2364,4.2362,4.2368,4.2386,4.238,4.2309,4.2298,4.2288,4.228,4.2387,4.2388,4.2455,4.2455,4.2456]}]]